Reflectivity
-20 -20 -20 -20 -20 -20 -20 -20 -20 -20 -20 -20 -20 -20 -20 -20 -20 -20 -20 -20 -20 -20 -20 -20 -20 -20 -20 27 -20 -20 -20 -20 10 -20 -20 -8 0 -18 -20 3 -10 -20 -0 -14
-20 -20 -20 -20 -20 -20 -20 -20 -20 -20 -20 -20 -20 -20 -20 -20 -20 -20 -20 -20 -20 -20 -20 -20 -20 -20 -20 -20 -20 -20 -20 -20 -20 -20 -20 -20 -20 -3 4 2 25 -3 16 3
-20 -20 -20 -20 -20 -20 -20 -20 -20 -20 -20 -20 -20 -20 -20 -20 -20 -20 -20 -20 -20 -20 -20 -20 -20 -20 -20 -20 -20 -20 -20 -20 -20 -20 -20 -20 -10 0 4 -1 28 -12 -14 27
-20 -20 -20 -20 -20 -20 -20 -20 -20 -20 -20 -20 -20 -20 -20 -20 -20 -20 -20 -20 -20 -20 -20 -20 -20 -20 -20 -20 -20 -20 -20 -20 -20 -20 -20 -20 -20 -20 -6 20 10 14 30 29
-20 -20 -20 -20 -20 -20 -20 -20 -20 -20 -20 -20 -20 -20 -20 -20 -20 -20 -20 -20 -20 -20 -20 -20 -20 -20 -20 -20 -20 -20 -20 -20 -20 -20 -20 -20 -16 -12 -19 -1 27 7 -6 14
-20 -20 -20 -20 -20 -20 -20 -20 -20 -20 -20 -20 -20 -20 -20 -20 -20 -20 -20 -20 -20 -20 -20 -20 -20 -20 -20 -20 -20 -20 -20 -20 -20 -20 -20 -20 -20 -20 -20 -13 -15 3 -2 -4
-20 -20 -20 -20 -20 -20 -20 -20 -20 -20 -20 -20 -20 -20 -20 -20 -20 -20 -20 -20 -20 -20 -20 -20 -20 -20 -20 -20 -20 -20 -20 -20 -20 -20 -20 -20 -19 -14 -3 -1 -19 -20 -20 -20
-20 -20 -20 -20 -20 -20 -20 -20 -20 -20 -20 -20 -20 -20 -20 -20 -20 -20 -20 -20 -20 -20 -20 -20 -20 -20 -20 -20 -20 -20 -20 -20 -18 -5 -13 -20 -20 -20 -20 -20 -20 -20 -20 -20
-20 -20 -20 -20 -20 -20 -20 -20 -20 -20 -20 -20 -20 -20 -20 -20 -20 -20 -20 -20 -20 -20 -20 -20 -20 -20 -20 -20 -20 -20 -20 -20 -20 -20 -20 -20 -20 -20 -20 -20 -20 -20 -20 -20
-20 -20 -20 -20 -20 -20 -20 -20 -20 -20 -20 -20 -20 -20 -20 -20 -20 -20 -20 -20 -20 -20 -20 -20 -20 -20 -20 -20 -20 -20 -20 -20 -20 -20 -20 -20 -20 -20 -20 -20 -20 -20 -20 -20
-20 -20 -20 -20 -20 -20 -20 -20 -20 -20 -20 -20 -20 -20 -20 -20 -20 -20 -20 -20 -20 -20 -20 -20 -20 -20 -20 -20 -20 -20 -20 -20 -20 -20 -20 -20 -20 -20 -20 -20 -20 -20 -20 -20
-20 -20 -20 -20 -20 -20 -20 -20 -20 -20 -20 -20 -20 -20 -20 -20 -20 -20 -20 -20 -20 -20 -20 -20 -20 -20 -20 -20 -20 -20 -20 -20 -20 -20 -20 -20 -20 -20 -20 -20 -20 -20 -20 -18
-20 -2 -20 -20 -20 -20 -20 -20 -20 -20 -20 -20 -20 -20 -20 -20 -20 -20 -20 -20 -20 -20 -20 -20 -20 -20 -20 -20 -20 -20 -20 -20 -20 -20 -20 -20 -20 -20 -20 -20 -20 -20 -20 -12
1 6 -20 -20 -20 -20 -20 -20 -20 -20 -20 -20 -20 -20 -20 -20 -20 -20 -20 -20 -20 -20 -3 -20 -20 -20 -20 -20 -20 -20 -20 -20 -20 -20 -20 -20 -20 -20 -20 -20 -20 -20 -20 -20
-20 -13 -20 -13 -20 -20 -20 -20 -20 -20 -20 -20 -20 -20 -20 -20 -20 -20 -20 -20 -20 -18 -20 -20 -20 -20 -20 -20 -20 -20 -20 -20 -20 -20 -20 -20 -20 -20 -20 -20 -20 -20 -20 -20
-7 -1 -13 -20 -20 -10 -11 -20 -20 -20 -20 -20 -20 -20 -20 -20 -20 -20 -20 -18 -19 -20 -17 -20 -20 -20 -20 -20 -20 -20 -20 -20 -20 -20 -20 -20 -20 -20 -20 -20 -20 -20 -20 -20
-20 -20 13 9 -7 -15 -20 -20 -20 -20 -20 -20 -20 -20 -20 -12 -5 -19 -20 -20 -20 -20 -20 -20 -20 -20 -20 -20 -20 -20 -20 -20 -20 -20 -20 -20 -20 -20 -20 -20 -20 -20 -20 -20
2 18 25 1 -4 -19 -12 12 11 -19 -20 -20 -18 10 19 18 8 -5 -20 -20 -20 -20 -20 -20 -20 -20 -20 -20 -20 -20 -20 -20 -20 -20 -20 -20 -20 -20 -20 -20 -20 -20 -20 -20
-9 8 19 28 32 28 15 4 -6 -12 11 16 19 21 20 19 14 -9 -20 -19 -20 -20 -20 -20 -20 -20 -20 -20 -20 -20 -20 -20 -20 -20 -20 -20 -20 -20 -20 -20 -20 -20 -20 -20
9 15 27 33 26 23 11 5 15 14 21 22 20 18 13 10 14 14 -9 -12 -20 -20 -20 -20 -20 -20 -20 -20 -20 -20 -20 -20 -20 -20 -20 -20 -20 -20 -20 -20 -20 -20 -20 -20
29 31 29 26 12 12 17 22 23 23 20 14 10 11 9 5 5 3 -4 -20 -20 -20 -20 -20 -20 -20 -20 -20 -20 -20 -20 -20 -20 -20 -20 -20 -20 -20 -20 -20 -20 -20 -20 -20
12 14 15 15 17 19 21 21 21 18 14 10 11 11 3 -12 -19 -20 -20 -20 -20 -20 -20 -20 -20 -20 -20 -20 -20 -20 -20 -20 -20 -20 -20 -20 -20 -20 -20 -20 -20 -20 -20 -20
19 18 16 17 17 15 15 15 13 13 13 10 0 -18 -20 -20 -20 -20 -20 -20 -20 -20 -20 -20 -20 -20 -20 -20 -20 -20 -20 -20 -20 -20 -20 -20 -20 -20 -20 -20 -20 -20 -20 -20
17 16 14 11 7 5 4 3 -2 -7 -13 -19 -20 -20 -20 -20 -20 -20 -20 -20 -20 -20 -20 -20 -20 -20 -20 -20 -20 -20 -20 -20 -20 -20 -20 -20 -20 -20 -20 -20 -20 -20 -20 -20
14 14 11 5 -1 2 4 7 6 5 4 -7 -17 -18 -20 -20 -20 -15 -20 -20 -20 -20 -20 -20 -20 -20 -20 -20 -20 -20 -20 -20 -20 -20 -20 -20 -20 -20 -20 -20 -20 -20 -20 -20
3 2 3 3 8 10 10 7 1 -6 -16 -16 -13 -12 -12 -16 -20 -20 -20 -19 -20 -20 -20 -20 -20 -20 -20 -20 -20 -20 -20 -20 -20 -20 -20 -20 -20 -20 -20 -20 -20 -20 -20 -20
3 1 -1 -6 -8 -8 -12 -15 -18 -19 -20 -20 -20 -20 -20 -19 -19 -20 -20 -20 -20 -20 -20 -20 -20 -20 -20 -20 -20 -20 -20 -20 -20 -20 -20 -20 -20 -20 -20 -20 -20 -20 -20 -20
Wind_Speed
5 5 5 6 7 11 9 6 7 8 10 9 7 6 6 6 6 3 3 3 1 2 3 5 5 5 5 8 9 8 8 8 7 7 7 8 8 6 5 6 5 4 10 7
4 3 5 4 6 10 9 3 9 6 8 10 4 3 2 3 3 6 7 8 8 6 4 3 2 1 2 3 4 5 6 5 5 7 7 7 6 6 6 6 5 8 5 5
5 1 3 6 8 11 5 5 6 8 12 4 6 5 4 6 8 9 9 10 11 10 9 8 7 5 5 4 5 5 5 5 7 8 8 7 7 9 8 8 10 6 5 5
4 1 7 4 1 2 11 6 9 7 6 5 3 6 5 4 11 9 8 9 9 8 9 9 10 11 10 10 10 9 9 8 8 9 11 11 11 11 8 7 5 5 2 3
6 5 4 3 6 8 8 14 11 14 5 5 11 9 4 4 6 9 8 8 9 9 10 11 11 11 12 13 12 12 11 11 10 11 13 12 10 8 6 4 2 2 2 5
4 5 11 5 4 6 4 13 8 11 10 16 11 7 6 8 7 10 9 9 11 11 11 12 11 12 14 13 13 13 12 12 12 12 11 9 7 5 3 2 3 1 5 7
4 4 7 6 4 6 7 13 7 13 14 17 9 1 12 13 10 10 10 11 11 12 13 13 12 14 17 15 15 12 11 10 9 8 7 5 4 2 1 2 4 6 7 8
4 2 9 8 6 11 7 2 5 10 13 12 9 13 14 13 13 12 13 12 12 14 14 13 13 15 15 13 9 9 9 9 8 7 6 5 6 5 5 5 6 7 7 8
10 8 2 11 4 7 4 4 6 11 11 14 16 10 14 13 13 12 13 13 13 15 16 13 12 12 14 10 10 10 10 10 8 7 7 6 5 5 5 5 5 7 7 8
4 6 8 7 4 4 6 5 6 9 16 17 16 18 16 14 14 13 13 14 14 16 15 14 11 12 11 9 9 10 10 9 7 7 6 6 4 4 5 6 7 7 8 10
3 5 2 9 10 6 5 5 9 9 9 15 20 18 17 16 15 14 14 13 13 14 13 13 12 12 11 9 9 9 8 6 6 5 7 6 6 6 6 6 8 9 8 9
8 11 7 6 12 9 11 10 12 14 13 13 17 20 19 16 14 15 15 14 14 14 14 12 12 11 10 9 9 7 7 6 6 5 5 5 6 6 7 9 11 13 15 12
3 3 3 4 6 6 9 12 10 13 17 20 17 18 19 17 15 16 15 15 14 14 13 12 12 11 9 8 8 9 7 6 4 5 5 5 6 6 7 6 9 11 14 14
5 7 2 5 4 6 11 13 15 15 14 15 18 17 17 17 17 15 14 14 14 13 13 11 11 10 7 8 8 8 7 8 5 5 5 5 6 7 6 8 8 8 10 13
4 5 3 12 13 12 13 15 16 16 16 17 15 18 18 19 17 16 14 13 13 13 11 10 10 9 7 7 8 8 6 5 5 4 5 6 5 6 6 8 8 8 9 9
9 8 7 7 13 14 14 13 17 16 15 15 15 16 17 17 16 15 13 12 12 10 10 8 9 7 7 6 7 6 6 8 6 4 4 5 5 6 6 7 8 8 9 10
8 4 6 7 8 10 9 10 13 15 15 15 17 17 17 16 15 14 13 12 12 11 9 8 8 7 7 7 6 4 4 4 5 4 4 5 5 6 6 6 7 7 8 9
1 10 5 8 10 11 12 12 12 14 14 16 15 14 13 12 13 13 13 12 11 10 8 7 7 7 7 6 6 4 4 3 3 4 4 5 5 5 6 6 7 8 8 9
9 9 12 11 10 12 12 12 12 14 14 13 14 12 10 10 11 13 12 10 9 9 7 7 8 7 6 7 5 4 4 3 3 4 4 4 4 5 5 6 7 8 8 8
17 14 15 14 12 13 14 11 13 13 12 13 13 12 11 10 10 9 9 9 6 6 7 7 6 5 5 5 4 3 3 3 4 3 3 4 4 5 5 6 7 7 8 8
12 12 14 14 13 12 12 11 12 11 9 9 11 11 11 11 9 8 9 7 7 7 7 6 4 3 3 3 2 2 2 2 3 3 3 3 4 5 6 6 7 7 8 8
10 12 13 13 13 13 11 10 11 10 10 10 10 11 11 11 8 7 6 6 6 6 4 3 3 3 3 2 2 1 1 2 2 3 2 3 4 5 6 6 7 7 8 8
11 12 12 12 12 12 12 11 11 10 10 9 9 9 8 6 5 5 5 5 5 5 4 3 4 4 3 1 1 1 1 1 2 3 2 3 4 5 5 7 7 7 8 8
13 13 14 12 12 13 14 12 12 11 10 9 8 7 8 6 5 4 6 6 7 5 3 3 3 3 2 1 1 1 2 2 2 3 3 4 4 4 5 6 7 7 8 9
13 13 12 12 13 10 12 11 10 9 9 9 8 7 6 4 2 4 4 4 5 3 2 2 3 3 2 1 2 2 3 3 4 3 4 4 4 5 6 6 7 7 8 8
14 10 11 14 10 7 6 5 6 5 5 5 4 3 4 4 5 5 4 3 3 2 2 1 0 1 1 2 3 3 4 4 4 4 4 4 4 5 6 7 7 7 8 8
13 13 10 10 9 9 8 7 6 6 5 4 3 2 3 3 3 3 3 2 2 2 2 2 1 2 2 3 3 4 4 4 4 5 4 4 4 5 6 7 7 8 8 8
Wind_Direction
228 209 181 195 186 178 199 198 191 236 208 250 253 266 287 316 308 311 25 54 77 169 166 161 190 189 173 161 169 173 179 186 200 180 177 170 158 143 148 162 159 161 163 150
199 121 188 223 222 196 209 214 247 245 245 240 240 250 299 5 45 66 67 75 75 76 81 93 162 215 122 121 150 176 187 187 157 157 152 127 117 118 114 105 110 133 101 74
221 104 120 277 198 200 195 205 194 219 239 177 211 197 144 116 101 94 80 75 73 69 61 52 48 49 68 96 127 132 124 121 119 126 118 106 107 104 101 104 111 99 92 43
150 123 222 236 79 203 217 236 215 258 234 222 174 107 96 101 124 109 93 85 75 75 75 60 62 65 72 73 75 80 82 89 100 108 106 106 105 100 95 106 98 87 178 257
151 199 301 212 193 176 176 253 214 226 210 152 136 122 79 61 92 106 100 90 83 77 79 79 76 82 86 81 83 83 85 89 95 104 105 97 94 94 95 84 132 211 252 244
144 188 222 181 203 140 119 271 194 192 180 159 159 169 160 154 126 106 94 85 87 83 86 84 80 89 89 87 88 86 89 92 95 99 91 90 94 91 85 220 281 266 249 252
153 220 286 242 143 143 155 259 190 185 171 166 180 107 128 133 112 100 104 105 103 95 88 87 94 94 88 89 88 95 95 92 84 76 77 67 66 63 32 325 288 284 281 279
111 138 262 158 98 175 211 178 182 173 171 157 121 125 127 127 125 124 119 112 103 97 90 87 91 92 90 88 89 83 77 74 68 61 54 45 30 7 347 331 313 303 297 294
189 205 197 204 196 190 147 182 189 166 157 140 139 143 138 134 131 126 120 111 107 103 97 83 82 89 91 82 86 83 75 66 58 57 47 37 25 6 344 339 319 312 306 304
124 209 219 221 236 227 187 204 173 164 148 152 148 148 139 136 134 129 125 117 114 107 99 91 80 78 80 82 86 83 78 67 56 53 38 32 24 15 355 350 340 333 329 323
261 265 317 250 228 201 170 142 125 113 146 145 139 143 141 139 137 131 124 119 114 109 104 97 89 78 72 74 84 84 79 65 50 38 26 19 22 11 4 0 349 337 334 328
211 205 182 222 194 166 158 169 154 136 125 137 142 141 140 135 135 132 127 124 116 112 109 101 90 80 70 64 67 76 70 51 37 31 22 16 8 357 35 359 357 356 348 347
237 112 78 63 91 140 139 150 143 135 139 137 139 137 136 133 134 130 128 125 121 116 110 106 95 82 69 68 71 71 70 55 45 32 18 10 2 357 348 0 5 360 356 360
110 120 111 196 190 146 127 121 116 114 121 127 131 130 128 126 127 125 123 121 118 115 110 106 96 82 71 75 76 76 76 57 46 29 14 8 3 359 353 350 342 345 351 351
38 5 337 118 115 119 125 129 122 124 128 129 130 129 131 130 127 123 119 116 113 109 106 105 97 83 71 74 73 66 59 47 34 26 27 12 3 357 355 348 344 341 340 345
64 67 90 123 131 141 140 139 128 134 132 129 128 128 125 119 119 118 123 128 126 115 104 98 94 86 74 74 70 66 69 45 36 28 16 10 5 0 354 348 343 345 338 341
111 81 112 121 131 132 131 127 128 130 128 125 123 123 120 115 114 118 113 107 105 105 104 101 97 86 73 69 61 62 55 45 30 32 21 13 1 2 353 343 336 336 332 335
327 126 139 143 149 124 117 117 121 122 121 122 117 113 119 130 126 126 123 117 108 102 98 93 91 87 73 68 62 66 53 39 36 34 20 19 5 357 350 339 331 332 329 328
103 100 111 117 115 113 112 112 106 105 109 115 111 109 109 108 120 124 128 122 121 120 110 103 94 88 83 77 72 74 62 46 43 45 19 16 8 359 348 333 331 328 328 326
82 86 89 95 95 104 102 98 103 106 112 112 109 107 109 113 116 117 115 103 93 106 119 111 105 95 92 86 67 83 68 48 33 33 33 12 5 348 336 325 323 323 324 322
81 90 95 98 96 94 101 108 107 106 104 109 120 125 122 120 112 119 119 116 117 116 109 108 102 97 84 91 87 91 80 57 37 18 14 6 341 337 327 325 324 323 321 319
81 84 84 86 84 77 70 79 87 90 88 88 93 105 110 114 108 84 61 112 121 122 114 111 106 81 92 110 81 102 109 45 21 356 346 338 332 325 325 326 326 323 318 317
71 77 79 77 81 81 72 68 70 78 86 91 99 104 110 114 113 121 117 108 119 122 112 105 118 123 118 90 82 44 9 342 334 334 308 308 313 319 321 322 321 316 316 318
70 70 76 78 80 77 77 73 79 79 80 85 88 99 118 114 86 72 95 104 108 115 108 135 145 120 114 86 15 337 302 283 288 300 282 268 294 311 321 320 314 316 314 312
69 70 70 74 77 81 91 93 94 96 99 95 87 80 81 53 75 123 110 106 120 124 130 122 127 100 71 24 330 325 307 272 268 276 280 280 299 312 316 315 309 312 311 307
61 60 59 55 56 61 65 68 74 63 74 78 67 63 71 78 93 102 99 96 91 67 43 59 78 44 357 322 314 307 296 278 262 268 275 278 298 307 312 311 309 309 307 304
55 52 55 53 42 42 45 47 60 51 39 34 52 89 103 96 97 103 98 83 53 29 10 350 334 322 299 301 297 297 286 291 285 285 287 283 295 304 307 306 306 305 302 299